Starlink 33594

operational
NORAD ID: 62770 Int'l Des: 2025-015 Owner: SPXS Country: US Constellation: starlink
LEOCIRCULAR

Starlink 33594について

説明を読み込み中...

リアルタイム位置

3D地球を読み込み中...

次回通過

高度履歴

Altitude vs Time

uPlot chart will show altitude changes over time

軌道要素

1 62770U 25015N 25259.74237862 -.00010575 00000-0 -34551-3 0 9998
2 62770 53.1616 50.0964 0001344 74.5430 285.5719 15.30191807 37850
Epoch: Sep 16, 2025 • Age: 26 hours

現在のステータス

高度 494.0 km
速度 7.62 km/s
衛星直下点 -51.38°S, 3.4°W
打ち上げ日 Jan 21, 2025
運用期間 0.6 years
タイプ internet

技術仕様

分類 Payload
質量 575.00 kg
乾燥質量 530.00 kg
総質量 575.00 kg
長さ 0.30 m
直径 4.10 m
スパン 29.00 m
形状 Box + pan
製造者 SPXS
バスタイプ Starlink V2MO
フェーズステータス In Orbit
所有者/国 SPXS/US

大規模コンステレーション

Loading constellations...